Regional Weather Roundup
Issued by NWS Charleston, SC

Current Version | Previous Version | Graphics & Text | Print | Product List | Glossary On
Versions: 1 2 3 4 5 6 7 8 9 10 11 12 13 14 15 16 17 18 19 20 21 22 23 24 25 26 27 28 29 30 31 32 33 34 35 36 37 38 39 40 41 42 43 44 45 46 47 48 49 50
000 ASUS42 KCHS 312228 RWRCHS REGIONAL WEATHER ROUNDUP NATIONAL WEATHER SERVICE CHARLESTON SC 600 PM EDT WED AUG 31 2016 NOTE: "FAIR" INDICATES FEW OR NO CLOUDS BELOW 12,000 FEET WITH NO SIGNIFICANT WEATHER AND/OR OBSTRUCTIONS TO VISIBILITY. NOT ALL STATIONS ARE QUALITY CONTROLLED. USE DATA WITH CAUTION... ESPECIALLY DEWPOINT OBSERVATIONS. SCZ027-030-031-034>040-042>050-312300- ...SOUTHEAST SOUTH CAROLINA... CITY SKY/WX TMP DP RH WIND PRES REMARKS N CHARLESTON LGT RAIN 80 75 84 E8 29.89S WATERFRONT PRK N/A 85 77 76 E12 29.86F HX 95 MOUNT PLEASANT FAIR 82 73 74 E5 29.89S JOHNS ISLAND FAIR 81 75 83 E12 29.89R PINOPOLIS N/A 82 73 74 SE7 29.83S MONCKS CORNER FAIR 82 70 65 SE6 29.90R SUMMERVILLE FAIR 88 72 58 E6 29.90R HX 94 BEAUFORT MCAS PTSUNNY 84 72 67 E13G20 29.87S BEAUFORT ARPT FAIR 82 73 74 E10 29.87F HAZE HILTON HEAD IS MOSUNNY 84 75 74 NE8 29.88S HX 92 WALTERBORO MOCLDY 86 70 58 E9 29.90R HX 90 ALLENDALE CLOUDY 86 70 58 VRB6G12 29.87F HX 90 ...SOUTHERN MIDLANDS AND PEE DEE... CITY SKY/WX TMP DP RH WIND PRES REMARKS GEORGETOWN FAIR 82 72 69 E8 29.92S KINGSTREE FAIR 77 73 88 CALM 29.92R ORANGEBURG PTSUNNY 85 71 63 SE5 29.90R HX 90 BARNWELL NOT AVBL AIKEN FAIR 84 72 65 NE8 29.93F MANNING RAIN 73 73 100 CALM 29.92S COLUMBIA CLOUDY 86 70 58 E15 29.90F HX 90 SUMTER RAIN 74 72 92 S3 29.90S FLORENCE MOSUNNY 86 70 58 SE8 29.91S HX 90 MYRTLE BEACH PTSUNNY 82 68 61 SE7 29.93F N MYRTLE BEACH MOSUNNY 82 73 74 SE7 29.92S $$ GAZ063-065-086>088-099>101-113>116-118-119-134>141-150-312300- ...SOUTHEAST GEORGIA... CITY SKY/WX TMP DP RH WIND PRES REMARKS SAVANNAH ARPT PTSUNNY 84 71 65 E12 29.87S HUNTER AAF PTSUNNY 83 77 83 E12 29.85S HX 91 FORT STEWART CLOUDY 81 76 84 CALM 29.85F STATESBORO SUNNY 86 76 70 S6 29.87F HX 96 SYLVANIA NOT AVBL CLAXTON MOCLDY 83 76 80 CALM 29.88R HX 92 ...CSRA...CENTRAL AND FAR SOUTHEAST GEORGIA... CITY SKY/WX TMP DP RH WIND PRES REMARKS THOMSON SUNNY 89 73 60 E3 29.93S HX 97 AUGUSTA-BUSH MOSUNNY 90 71 53 NE8 29.87S HX 96 AUGUSTA-DANIEL PTSUNNY 89 67 47 E6 29.89S HX 92 SWAINSBORO MOCLDY 81 73 78 NE5 29.89S VIDALIA CLOUDY 84 77 79 SE5 29.88R HX 94 EASTMAN FAIR 89 63 41 SE9 29.89S HAZLEHURST FAIR 85 76 74 E3 29.86S HX 95 ALMA CLOUDY 81 76 84 E6 29.86S WAYCROSS CLOUDY 85 80 85 SE3 29.86S HX 98 JESUP MOCLDY 81 81 100 E7 29.88S HX 91 BAXLEY FAIR 82 81 94 E7 29.87S HX 95 BRUNSWICK CLOUDY 77 77 100 CALM 29.88R SAINT SIMONS TSTM 77 74 90 NW9 29.87R $$ SCZ027-028-034-036>038-045-046-048>050-GAZ119-141-312300- ...LAKE AND SUPPLEMENTAL COASTAL OBSERVATIONS... STATION/POSITION TIME TEMP WIND PRES WAVE SWELL AIR SEA DIR/SP/G HT/PER HT/PER/DIR (UTC) (F) (DEG/KT/KT) (MB) (FT/S) (FT/S/D) WINYAH BAY 2145 82 110/ 9 1012.0S LAKE MURRAY 2100 86 100/ 8/ 13 1012.5R ACE BASIN NERRS 2100 85 100/ 4 1012.0S FORT PULASKI 2200 81 84 N/A SAPELO ISLAND 2200 77 20/ 4 1011.0S $$ ANZ835-935-AMZ111-154-330-350-352-354-370-450-454-472-312300- ...C-MAN AND BUOY OBSERVATIONS... STATION/POSITION TIME TEMP WIND PRES WAVE SWELL AIR SEA DIR/SP/G HT/PER HT/PER/DIR (UTC) (F) (DEG/KT/KT) (MB) (FT/S) (FT/S/D) BUOY 41004 2150 80 85 90/ 21/ 25 1010.5F 5/ 5 3/ 80/11 BUOY 41008 2150 81 85 10/ 2/ 4 1011.1R 4/ 7 3/150/ 7 FOLLY BEACH CMAN 2200 81 80/ 14/ 16 1012.3S CAPERS NEARSHORE 2208 81 84 90/ 14/ 19 1012.1R FRIPP NEARSHORE 2208 81 85 80/ 16/ 19 1010.6F STATION/POSITION TIME TEMP WIND PRES WAVE SWELL AIR SEA DIR/SP/G HT/PER HT/PER/DIR (UTC) (F) (DEG/KT/KT) (MB) (FT/S) (FT/S/D) 5E ST. MARYS GA 2201 85 N/A 4/ 6 2/ 80/11 FRYING PAN BUOY 2200 80 84 50/ 10/ 14 1013.1F BUOY 41025 2150 81 85 30/ 4/ 6 1013.6S 4/11 3/110/11 CAPE LOOKOUT NC 2200 79 230/ 4/ 4 1013.7F BUOY 41002 2150 80 84 170/ 4/ 6 1014.7F 4/11 3/ 40/11 BUOY 41010 NOT AVBL ST AUGUSTINE FL 2200 82 83 230/ 6/ 8 1012.3F $$

USA.gov is the U.S. government's official web portal to all federal, state and local government web resources and services.